Orbital Elements at Epoch 2459200.5 (2020-Dec-17.0) TDB
Reference: JPL 19 (heliocentric ecliptic J2000)
Element | Value | Uncertainty (1-sigma) | Units |
e | .2222865300859466 | 1.8937e-07 | |
a | 2.740774051095344 | 2.8547e-08 | au |
q | 2.131536897527757 | 5.146e-07 | au |
i | 16.43047449633988 | 1.6414e-05 | deg |
node | 2.478332375640066 | 2.3143e-05 | deg |
peri | 181.575880859127 | 7.1996e-05 | deg |
M | 86.55797587784605 | 4.4362e-05 | deg |
tp | 2458802.014182559870 (2019-Nov-14.51418256) | 0.00020117 | TDB |
period | 1657.327274853284 4.54 | 2.5893e-05 7.089e-08 | d yr |
n | .2172172059570245 | 3.3937e-09 | deg/d |
Q | 3.350011204662932 | 3.4893e-08 | au |
|
| | Orbit Determination Parameters
Additional Information
|